Location: Castillon
(43.0896°N, 0.2156°E)
Time: 10:20:20
(UTC+00:00)

Cosmos 1544 Rocket - Pass Details

Date: 22 October 2021
Orbit: 603 x 631 km, 82.5° (Epoch: 08 December)

Event Time Altitude Azimuth Distance (km) Brightness Sun altitude
Rises 18:22:37 0° 188° (S) 2,907 7.1 -14.8°
Reaches altitude 10° 18:24:50 10° 189° (S) 2,006 6.3 -15.2°
Maximum altitude 18:29:18 84° 278° (W) 641 3.6 -16.0°
Drops below altitude 10° 18:33:48 10° 7° (N) 2,021 6.1 -16.9°
Sets 18:36:03 0° 8° (N) 2,931 7.0 -17.3°
